Gakona, AK

2:32 PM AKDT on August 29, 2016 (GMT -0800)
Gulkana

Weather History for PAGK - January, 2014

Change the Weather History Date:

Thursday, January 16, 2014

  Actual Average Record
Temperature  
Mean Temperature 32 °F -  
Max Temperature 36 °F 3 °F 46 °F (2009)
Min Temperature 27 °F -13 °F -55 °F (1973)
Degree Days  
Heating Degree Days 34    
Moisture  
Dew Point 31 °F    
Average Humidity 94    
Maximum Humidity 100    
Minimum Humidity 71    
Precipitation  
Precipitation 0.35 in - - ()
Sea Level Pressure  
Sea Level Pressure 29.59 in    
Wind  
Wind Speed 8 mph (South)    
Max Wind Speed 20 mph    
Max Gust Speed -    
Averages and records for this station are not official NWS values.
T = Trace of Precipitation, MM = Missing Value Source: NWS Daily Summary

Daily Weather History Graph

Daily Weather History Graph

Search for Another Location

Airport or City:

Trip Planner

Search our weather history database for the weather conditions in past years. The results will help you decide how hot, cold, wet, or windy it might be!

Date:

Astronomy

Jan. 16, 2014 Rise Set
Actual Time 9:45 AM AKST 3:58 PM AKST
Civil Twilight 8:46 AM AKST 4:57 PM AKST
Nautical Twilight 7:48 AM AKST 5:55 PM AKST
Astronomical Twilight 6:54 AM AKST 6:49 PM AKST
Moon 5:37 PM AKST (1/16) 9:09 AM AKST (1/16)
Length of Visible Light 8h 10m
Length of Day
6h 13m
Full, 100% of the Moon is Illuminated
Jan 16
Full
Jan 23
Last Quarter
Jan 30
New
Feb 6
First Quarter
Feb 14
Full

Hourly Weather History & Observations

Time (AKST) Temp. Windchill Dew Point Humidity Pressure Visibility Wind Dir Wind Speed Gust Speed Precip Events Conditions
12:53 AM 35.1 °F 24.8 °F 30.0 °F 82% 29.67 in - South 17.3 mph - N/A   Clear
1:53 AM 36.0 °F 25.3 °F 28.9 °F 76% 29.62 in - South 19.6 mph - N/A   Clear
3:53 AM 33.1 °F 27.7 °F 28.9 °F 85% 29.54 in - South 5.8 mph - N/A   Overcast
4:53 AM 34.0 °F 28.0 °F 30.0 °F 85% 29.53 in - East 6.9 mph - 0.00 in Snow Light Snow
5:13 AM 33.1 °F 28.7 °F 30.9 °F 92% 29.45 in - East 4.6 mph - 0.03 in Snow Snow
5:53 AM 33.1 °F 26.1 °F 30.9 °F 92% 29.50 in - ESE 8.1 mph - 0.10 in Snow Snow
6:05 AM 33.1 °F 27.7 °F 32.0 °F 96% 29.41 in - East 5.8 mph - 0.01 in Snow Light Snow
6:53 AM 33.1 °F 28.7 °F 32.0 °F 96% 29.44 in - NE 4.6 mph - 0.06 in Snow Light Snow
7:27 AM 33.1 °F 25.5 °F 30.9 °F 92% 29.34 in - NNE 9.2 mph - 0.04 in Snow Snow
7:53 AM 33.1 °F 28.7 °F 32.0 °F 96% 29.40 in - ENE 4.6 mph - 0.08 in Snow Snow
8:53 AM 33.1 °F 30.0 °F 32.0 °F 96% 29.41 in - WNW 3.5 mph - 0.10 in Snow Snow
9:16 AM 33.1 °F 30.0 °F 32.0 °F 96% 29.37 in - NNW 3.5 mph - 0.05 in Snow Snow
9:53 AM 33.1 °F - 30.9 °F 92% 29.45 in - Calm Calm - 0.13 in Snow Snow
10:35 AM 32.0 °F 26.4 °F 32.0 °F 100% 29.39 in - SSE 5.8 mph - 0.04 in Snow Light Snow
10:46 AM 32.0 °F 26.4 °F 30.9 °F 96% 29.38 in - SE 5.8 mph - 0.05 in Snow Snow
10:53 AM 32.0 °F 26.4 °F 30.9 °F 96% 29.45 in - SE 5.8 mph - 0.06 in Snow Snow
11:15 AM 32.0 °F 25.6 °F 32.0 °F 100% 29.41 in - South 6.9 mph - 0.02 in Snow Snow
11:38 AM 32.0 °F 25.6 °F 32.0 °F 100% 29.45 in - SW 6.9 mph - 0.02 in Snow Light Snow
11:53 AM 32.0 °F 27.5 °F 32.0 °F 100% 29.52 in - South 4.6 mph - 0.03 in Snow Light Snow
12:45 PM 33.1 °F 30.0 °F 32.0 °F 96% 29.50 in - SSW 3.5 mph - 0.00 in   Overcast
12:53 PM 33.1 °F 28.7 °F 32.0 °F 96% 29.56 in - SSW 4.6 mph - 0.00 in   Overcast
1:21 PM 33.1 °F 26.9 °F 32.0 °F 96% 29.53 in - WSW 6.9 mph - N/A   Overcast
1:33 PM 33.1 °F 27.7 °F 32.0 °F 96% 29.53 in - SW 5.8 mph - N/A   Overcast
1:50 PM 33.8 °F 26.4 °F 32.0 °F 93% 29.53 in - SW 9.2 mph - N/A   Overcast
1:53 PM 33.1 °F 25.5 °F 32.0 °F 96% 29.59 in - SW 9.2 mph - N/A   Overcast
2:07 PM 33.1 °F 25.5 °F 32.0 °F 96% 29.53 in - SW 9.2 mph - N/A   Overcast
2:19 PM 33.1 °F 25.5 °F 32.0 °F 96% 29.54 in - SSW 9.2 mph - N/A   Overcast
2:53 PM 33.1 °F 24.9 °F 32.0 °F 96% 29.62 in - SSW 10.4 mph - N/A   Overcast
3:01 PM 33.1 °F 24.9 °F 32.0 °F 96% 29.56 in - SSW 10.4 mph - N/A   Overcast
3:12 PM 33.1 °F 24.9 °F 32.0 °F 96% 29.56 in - SSW 10.4 mph - N/A   Overcast
3:53 PM 34.0 °F 26.0 °F 32.0 °F 92% 29.65 in - South 10.4 mph - N/A   Overcast
4:14 PM 33.1 °F 25.5 °F 32.0 °F 96% 29.59 in - South 9.2 mph - N/A   Overcast
4:31 PM 33.1 °F 24.9 °F 32.0 °F 96% 29.61 in - South 10.4 mph - N/A   Overcast
4:53 PM 34.0 °F 28.0 °F 33.1 °F 96% 29.69 in - South 6.9 mph - N/A   Overcast
5:27 PM 34.0 °F 27.2 °F 33.1 °F 96% 29.64 in - South 8.1 mph - N/A   Scattered Clouds
5:39 PM 34.0 °F 28.0 °F 33.1 °F 96% 29.65 in - South 6.9 mph - N/A   Mostly Cloudy
5:53 PM 34.0 °F 28.0 °F 33.1 °F 96% 29.74 in - South 6.9 mph - N/A   Overcast
6:08 PM 34.0 °F 27.2 °F 34.0 °F 100% 29.68 in - South 8.1 mph - N/A   Overcast
6:37 PM 34.0 °F 29.8 °F 32.0 °F 92% 29.70 in - SSW 4.6 mph - N/A   Overcast
6:53 PM 33.1 °F - 30.9 °F 92% 29.78 in - Calm Calm - N/A   Mostly Cloudy
7:26 PM 32.0 °F 25.6 °F 30.0 °F 92% 29.72 in - SW 6.9 mph - N/A   Scattered Clouds
7:49 PM 32.0 °F 27.5 °F 30.2 °F 93% 29.73 in - SW 4.6 mph - N/A   Mostly Cloudy
7:53 PM 30.9 °F 26.2 °F 30.0 °F 96% 29.80 in - SSW 4.6 mph - N/A   Mostly Cloudy
8:13 PM 30.0 °F - 28.0 °F 92% 29.73 in - Calm Calm - N/A   Partly Cloudy
8:53 PM 30.0 °F - 28.9 °F 96% 29.81 in - Calm Calm - N/A   Partly Cloudy
9:22 PM 30.0 °F - 28.9 °F 96% 29.73 in - Calm Calm - N/A   Mostly Cloudy
9:39 PM 30.9 °F 27.5 °F 28.9 °F 92% 29.73 in - NW 3.5 mph - N/A   Scattered Clouds
9:53 PM 30.9 °F - 28.9 °F 92% 29.81 in - Calm Calm - N/A   Partly Cloudy
10:35 PM 30.9 °F - 30.0 °F 96% 29.74 in - Calm Calm - N/A   Mostly Cloudy
10:53 PM 32.0 °F 27.5 °F 30.0 °F 92% 29.81 in - NE 4.6 mph - N/A   Mostly Cloudy
11:03 PM 32.0 °F - 30.9 °F 96% 29.74 in - Calm Calm - N/A   Scattered Clouds
11:53 PM 30.9 °F 26.2 °F 30.9 °F 100% 29.81 in - WNW 4.6 mph - N/A   Partly Cloudy